Location: Newark
(15.4608°S, 41.1635°W)
Time: 16:37:25
(UTC+00:00)

SR - Visible Passes

Search period start: 27 February 2021 00:00
Search period end: 09 March 2021 00:00
Orbit: 573 x 882 km, 66.7° (Epoch: 26 February)

Date Brightness Start Highest point End Pass type
(mag) Time Alt. Az. Time Alt. Az. Time Alt. Az.
01 Mar ? 08:15:19 10° NNE 08:18:43 17° ENE 08:22:00 10° ESE visible
03 Mar ? 08:16:08 10° N 08:21:09 38° ENE 08:25:48 10° SE visible
04 Mar ? 07:28:24 10° NE 07:31:27 15° ENE 07:34:24 10° ESE visible
05 Mar ? 08:18:07 10° NNW 08:23:34 87° ENE 08:28:33 10° SSE visible
06 Mar ? 07:29:00 10° N 07:33:52 34° ENE 07:38:24 10° SE visible
07 Mar ? 06:41:34 10° NE 06:44:10 14° ENE 06:46:43 10° ESE visible
07 Mar ? 08:20:59 10° NW 08:25:59 40° WSW 08:30:37 10° S visible
08 Mar ? 07:30:53 10° NNW 07:36:17 80° ENE 07:41:14 10° SSE visible
